Weather Roundup
Issued by NWS

Home | Current Version | Previous Version | Graphics & Text | Print | Product List | Glossary Off
Versions: 1 2 3 4 5 6 7 8 9 10 11 12 13 14 15 16 17 18 19 20 21 22 23 24 25 26 27 28 29 30 31 32 33 34 35 36 37 38 39 40 41 42 43 44 45 46 47 48 49 50

000
NZUS93 KARX 290810
HRRWXR

CURRENT HOURLY OBSERVATIONS ACROSS
MUCH OF THE UPPER MISSISSIPPI VALLEY
NATIONAL WEATHER SERVICE LA CROSSE WI
300 AM CDT TUE JUL 29 2014


...SOUTHEAST MINNESOTA...


CITY           SKY/WX    TMP DP  RH WIND       PRES   REMARKS
ROCHESTER      CLEAR     55  52  89 W8        30.14F
ROCHESTER/MAYO FAIR      59  53  79 W6        30.13F
WINONA         CLEAR     57  54  88 NW3       30.10F
AUSTIN         CLEAR     57  54  88 NW3       30.14S
ALBERT LEA     CLEAR     57  54  88 NW3       30.15F
DODGE CENTER   CLEAR     61  55  82 NW7       30.14S
PRESTON        CLEAR     55  56 100 NW7       30.13F
OWATONNA       CLEAR     55  52  88 W6        30.15S
FARIBAULT      CLEAR     63  54  72 NW5       30.14F
$$

...ELSEWHERE IN MINNESOTA...


CITY           SKY/WX    TMP DP  RH WIND       PRES   REMARKS
MINNEAPOLIS    CLEAR     62  56  80 NW6       30.13S
INTNL FALLS    CLEAR     55  54  96 CALM      30.10S
DULUTH         PTCLDY    57  53  86 NW5       30.10S
RED WING       CLEAR     55  54  94 CALM      30.10F
REDWOOD FALLS  CLEAR     55  53  93 W8        30.17F
MANKATO        CLOUDY    59  52  77 W6        30.15F
WORTHINGTON    CLEAR     52  48  87 NW6       30.22S
FAIRMONT       CLEAR     57  48  72 NW7       30.18S
$$

...SOUTHWEST WISCONSIN...


CITY           SKY/WX    TMP DP  RH WIND       PRES   REMARKS
LA CROSSE      CLEAR     59  55  87 SE3       30.08F
PRAIRIE DU CHI CLEAR     54  51  90 CALM      30.10F
BOSCOBEL       CLEAR     54  52  93 SW5       30.10F
LONE ROCK      CLEAR     59  54  83 W5        30.07F
PLATTEVILLE    CLEAR     53  51  93 W5        30.10F
FORT MC COY    CLEAR     49  48  95 NE7       30.09S
CAMP DOUGLAS   CLEAR     54  54 100 W7        30.06F
VIROQUA        FAIR      55  55  99 W6        30.09F
WIS DELLS      PTCLDY    58  51  76 CALM      30.06F
$$

...ELSEWHERE IN WISCONSIN...


CITY           SKY/WX    TMP DP  RH WIND       PRES   REMARKS
MILWAUKEE      MOCLDY    62  54  74 W6        30.02F
MADISON        PTCLDY    61  52  72 NW5       30.05F
GREEN BAY      CLEAR     58  55  90 W8        29.99F
EAU CLAIRE     CLEAR     58  54  86 W3        30.07F
BLACK RVR FLS  FAIR      51  51 100 CALM      30.07S
MEDFORD        CLEAR     53  52  98 CALM      30.06F FOG
WAUSAU         CLEAR     57  54  89 NW8       30.03S
WIS RAPIDS     PTCLDY    58  54  86 CALM      30.06F
MARSHFIELD     CLEAR     58  53  84 NW8       30.05F
RICE LAKE      NOT AVBL
$$

...NORTHEAST IOWA...


CITY           SKY/WX    TMP DP  RH WIND       PRES   REMARKS
WATERLOO       CLEAR     56  55  97 NW3       30.13F
DUBUQUE        CLEAR     54  51  90 CALM      30.11F
DECORAH        CLEAR     55  54  94 CALM      30.11F
MASON CITY     CLEAR     54  53  97 W7        30.17F
CHARLES CITY   CLEAR     55  54  94 W6        30.15S
OELWEIN        CLEAR     54  52  94 W7        30.14S
$$

...ELSEWHERE IN IOWA...


CITY           SKY/WX    TMP DP  RH WIND       PRES   REMARKS
DES MOINES     CLEAR     61  57  87 CALM      30.16S
IOWA CITY      CLEAR     57  56  96 CALM      30.14S
FORT DODGE     CLEAR     57  54  88 NW5       30.19S
MARSHALLTOWN   CLEAR     55  54  96 W6        30.15S
CEDAR RAPIDS   CLEAR     54  52  93 W6        30.12F
$$

...NORTHERN ILLINOIS...


CITY           SKY/WX    TMP DP  RH WIND       PRES   REMARKS
CHICAGO-OHARE  CLEAR     62  51  67 NW6       30.03F
DUPAGE         CLEAR     60  53  77 NW6       30.04S
CHICAGO-MIDWAY CLEAR     62  53  72 CALM      30.03F
MOLINE         CLEAR     54  51  90 CALM      30.11S
ROCKFORD       MOCLDY    60  51  72 NW5       30.09S
STERLING       CLEAR     55  52  88 W6        30.09S
PEORIA         CLEAR     59  51  75 W5        30.10F
$$

NOTE: "FAIR" INDICATES FEW OR NO CLOUDS BELOW 12,000 FEET WITH NO
SIGNIFICANT WEATHER AND/OR OBSTRUCTIONS TO VISIBILITY. WIND
SPEEDS ARE IN MILES-PER-HOUR.



USA.gov is the U.S. government's official web portal to all federal, state and local government web resources and services.